Weather History for Verona, Italy

Change the Weather History Date:

Sunday, April 6, 2014

  Actual Average Record
Temperature  
Mean Temperature 62 °F -  
Max Temperature 74 °F 65 °F 75 °F (2009)
Min Temperature 50 °F 47 °F 39 °F (2013)
Degree Days  
Heating Degree Days 3    
Growing Degree Days 12 (Base 50)    
Moisture  
Dew Point 50 °F    
Average Humidity 66    
Maximum Humidity 94    
Minimum Humidity 29    
Precipitation  
Precipitation 0.00 in 0.09 in - ()
Sea Level Pressure  
Sea Level Pressure 30.01 in    
Wind  
Wind Speed 4 mph ()    
Max Wind Speed 8 mph    
Max Gust Speed -    
Visibility 8.6 miles    
Events      
Averages and records for this station are not official NWS values.
T = Trace of Precipitation, MM = Missing Value Source: Averaged Metar Reports

Daily Weather History Graph

Daily Weather History Graph

Search for Another Location

Airport:

Trip Planner

Search our weather history database for the weather conditions in past years. The results will help you decide how hot, cold, wet, or windy it might be!

Date:

Astronomy

Apr. 06, 2014 Rise Set
Actual Time 6:48 AM CEST 7:50 PM CEST
Civil Twilight 6:17 AM CEST 8:20 PM CEST
Nautical Twilight 5:41 AM CEST 8:57 PM CEST
Astronomical Twilight 5:03 AM CEST 9:35 PM CEST
Moon 11:24 AM CEST (4/6) 1:43 AM CEST (4/6)
Length of Visible Light 14h 03m
Length of Day
13h 02m
Waxing Crescent, 41% of the Moon is Illuminated
Apr 6
Waxing Crescent
Apr 7
First Quarter
Apr 15
Full
Apr 22
Last Quarter
Apr 29
New

Hourly Weather History & Observations

Time (CEST) Temp. Dew Point Humidity Pressure Visibility Wind Dir Wind Speed Gust Speed Precip Events Conditions
12:15 AM 55.4 °F 51.8 °F 88% 29.98 in - NNW 3.5 mph - N/A   Clear
12:45 AM 55.4 °F 51.8 °F 88% 29.98 in - NNW 3.5 mph - N/A   Clear
1:15 AM 53.6 °F 51.8 °F 94% 29.98 in - NNW 2.3 mph - N/A   Clear
1:45 AM 51.8 °F 50.0 °F 94% 29.98 in - NW 2.3 mph - N/A   Clear
2:00 AM 52 °F 50 °F 91% 29.99 in 6 mi NW 2.3 mph - -  
2:15 AM 53.6 °F 50.0 °F 88% 29.98 in - WNW 4.6 mph - N/A   Clear
2:45 AM 53.6 °F 50.0 °F 88% 29.98 in - NW 4.6 mph - N/A   Clear
3:15 AM 53.6 °F 50.0 °F 88% 29.98 in - NW 4.6 mph - N/A   Clear
3:45 AM 53.6 °F 48.2 °F 82% 29.98 in - NW 5.8 mph - N/A   Clear
4:15 AM 53.6 °F 48.2 °F 82% 29.98 in - NW 5.8 mph - N/A   Clear
4:45 AM 53.6 °F 50.0 °F 88% 29.98 in - WNW 5.8 mph - N/A   Clear
5:00 AM 54 °F 49 °F 79% 29.99 in 6 mi WNW 5.8 mph - -  
5:15 AM 51.8 °F 48.2 °F 88% 29.98 in - West 2.3 mph - N/A   Clear
5:45 AM 53.6 °F 50.0 °F 88% 29.98 in - West 5.8 mph - N/A   Clear
6:15 AM 53.6 °F 48.2 °F 82% 29.98 in - West 6.9 mph - N/A   Clear
6:45 AM 53.6 °F 48.2 °F 82% 29.98 in - West 3.5 mph - N/A   Clear
7:15 AM 53.6 °F 48.2 °F 82% 29.98 in - West 5.8 mph - N/A   Clear
7:45 AM 51.8 °F 50.0 °F 94% 29.98 in - South 3.5 mph - N/A   Clear
8:00 AM 53 °F 50 °F 84% 29.99 in 6 mi South 3.5 mph - -  
8:15 AM 55.4 °F 51.8 °F 88% 29.98 in - SW 2.3 mph - N/A   Clear
8:45 AM 55.4 °F 51.8 °F 88% 30.01 in - Calm Calm - N/A   Clear
9:15 AM 59.0 °F 53.6 °F 82% 30.01 in - Calm Calm - N/A   Clear
9:45 AM 62.6 °F 53.6 °F 72% 30.01 in - NE 2.3 mph - N/A   Clear
10:15 AM 64.4 °F 53.6 °F 68% 30.01 in - SSE 1.2 mph - N/A   Clear
10:45 AM 66.2 °F 53.6 °F 64% 30.04 in - ESE 2.3 mph - N/A   Clear
11:00 AM 66 °F 53 °F 53% 30.04 in 12 mi ESE 2.3 mph - -  
11:15 AM 68.0 °F 51.8 °F 56% 30.04 in - SE 3.5 mph - N/A   Clear
11:45 AM 69.8 °F 53.6 °F 56% 30.04 in - West 2.3 mph - N/A   Clear
12:15 PM 69.8 °F 51.8 °F 53% 30.04 in - ESE 3.5 mph - N/A   Clear
12:45 PM 69.8 °F 48.2 °F 46% 30.04 in - South 5.8 mph - N/A   Clear
1:15 PM 69.8 °F 48.2 °F 46% 30.04 in - West 6.9 mph - N/A   Clear
1:45 PM 69.8 °F 48.2 °F 46% 30.04 in - WNW 5.8 mph - N/A   Clear
2:00 PM 71 °F 48 °F 32% 30.04 in 12 mi WNW 5.8 mph - -   Clear
2:15 PM 71.6 °F 48.2 °F 43% 30.04 in - North 3.5 mph - N/A   Clear
2:45 PM 71.6 °F 50.0 °F 46% 30.04 in - South 8.1 mph - N/A   Clear
3:15 PM 73.4 °F 50.0 °F 44% 30.04 in - South 5.8 mph - N/A   Clear
3:45 PM 73.4 °F 48.2 °F 41% 30.04 in - SSW 3.5 mph - N/A   Clear
4:15 PM 73.4 °F 46.4 °F 38% 30.01 in - SE 5.8 mph - N/A   Clear
4:45 PM 73.4 °F 48.2 °F 41% 30.01 in - SSW 6.9 mph - N/A   Clear
5:00 PM 73 °F 48 °F 29% 30.02 in 12 mi SSW 6.9 mph - -   Partly Cloudy
5:15 PM 73.4 °F 46.4 °F 38% 30.01 in - WSW 8.1 mph - N/A   Clear
5:45 PM 73.4 °F 46.4 °F 38% 30.01 in - SW 5.8 mph - N/A   Clear
6:15 PM 73.4 °F 46.4 °F 38% 30.01 in - WSW 4.6 mph - N/A   Clear
6:45 PM 71.6 °F 48.2 °F 43% 30.01 in - West 6.9 mph - N/A   Clear
7:15 PM 69.8 °F 48.2 °F 46% 30.01 in - WSW 4.6 mph - N/A   Clear
7:45 PM 68.0 °F 48.2 °F 49% 30.01 in - West 4.6 mph - N/A   Clear
8:00 PM 69 °F 48 °F 35% 30.03 in 9 mi West 4.6 mph - -  
8:15 PM 66.2 °F 48.2 °F 52% 30.01 in - WSW 3.5 mph - N/A   Clear
8:45 PM 64.4 °F 48.2 °F 56% 30.04 in - West 4.6 mph - N/A   Clear
9:15 PM 60.8 °F 50.0 °F 68% 30.04 in - Calm Calm - N/A   Clear
9:45 PM 60.8 °F 50.0 °F 68% 30.04 in - North 3.5 mph - N/A   Clear
10:15 PM 59.0 °F 50.0 °F 72% 30.06 in - North 4.6 mph - N/A   Clear
10:45 PM 59.0 °F 51.8 °F 77% 30.06 in - North 5.8 mph - N/A   Clear
11:00 PM 59 °F 51 °F 67% 30.07 in 6 mi North 5.8 mph - -  
11:15 PM 59.0 °F 51.8 °F 77% 30.06 in - NNW 6.9 mph - N/A   Clear
11:45 PM 57.2 °F 50.0 °F 77% 30.06 in - NNW 6.9 mph - N/A   Clear